User: anonymous   Login
Location: Alladorf
(49.9620°N, 11.3790°E)
Time: 06:08:16
(UTC+00:00)
Language:

FALCON 9 DEB - Orbit

View from above orbital plane
View from above orbital plane
View from above satellite
View from above satellite

Ground track
Ground track

The orbit data is extracted from the following two-line orbital elements,

1 44295U 19029BN  21055.56773698  .00004791  00000-0  10806-3 0  9998
2 44295  53.0021 359.1605 0009696 146.0591 214.1036 15.45206376100458
Epoch (UTC): 24 February 2021 13:37:32
Eccentricity: 0.0009696
inclination: 53.0021°
perigee height: 424 km
apogee height: 437 km
right ascension of ascending node: 359.1605°
argument of perigee: 146.0591°
revolutions per day: 15.45206376
mean anomaly at epoch: 214.1036°
orbit number at epoch: 10045

The dashed part of the orbit path shows where the satellite is in the earth's shadow,  

DLR